time_stamp(utc),avg(mph),gust(mph),direction(deg),12m_air_temp(f),sonic_u(cm/s),sonic_v(cm/s),sonic_w(cm/s),pressure,2m_air_temp(f),pyranometer(W/m^2)
"2020-05-16 00:03:21+00",21.8,24.8,,66.2,-578,-808,-3,1012.04,66,0
"2020-05-16 00:08:21+00",20.2,24.2,,66.1,-523,-777,21,1012.04,65.9,0
"2020-05-16 00:13:21+00",20.6,25.6,,65.9,-523,-813,29,1011.95,65.6,0
"2020-05-16 00:18:21+00",21.6,25.6,,65.7,-580,-832,21,1011.88,65.5,0
"2020-05-16 00:23:21+00",25.8,29.8,,65.8,-698,-972,13,1011.86,65.5,0
"2020-05-16 00:28:21+00",23.9,26.9,,65.7,-627,-902,3,1011.86,65.4,0
"2020-05-16 00:33:21+00",24.9,26.9,,65.7,-690,-897,8,1011.91,65.3,0
"2020-05-16 00:38:21+00",23.6,26.6,,65.5,-666,-851,32,1011.86,65.2,0
"2020-05-16 00:43:21+00",24.7,28.7,,65.3,-693,-900,35,1011.86,65,0
"2020-05-16 00:48:21+00",22.6,25.6,,65,-625,-832,40,1011.82,64.8,0
"2020-05-16 00:53:21+00",25.0,29.0,,64.8,-654,-942,14,1011.8,64.6,0
"2020-05-16 00:58:21+00",22.8,27.8,,64.7,-631,-844,43,1011.77,64.5,0
"2020-05-16 01:03:21+00",24.9,28.9,,64.8,-720,-889,19,1011.98,64.5,0
"2020-05-16 01:08:21+00",23.9,26.9,,64.5,-694,-834,9,1011.94,64.3,0
"2020-05-16 01:13:21+00",24.1,27.1,,64.3,-719,-857,4,1012.02,64.1,0
"2020-05-16 01:18:21+00",23.8,26.8,,64.1,-643,-878,27,1011.98,63.9,0
"2020-05-16 01:23:21+00",23.1,29.1,,63.9,-638,-835,25,1012.16,63.7,0
"2020-05-16 01:28:21+00",21.1,24.1,,63.7,-581,-774,9,1012.17,63.5,0
"2020-05-16 01:33:21+00",20.7,23.7,,63.7,-571,-757,15,1012.23,63.4,0
"2020-05-16 01:38:21+00",22.0,25.0,,63.8,-574,-835,1,1012.28,63.5,0
"2020-05-16 01:43:21+00",21.7,24.7,,64.1,-606,-797,8,1012.32,63.7,0
"2020-05-16 01:48:21+00",20.6,24.6,,64.1,-553,-792,4,1012.3,63.7,0
"2020-05-16 01:53:21+00",21.7,25.7,,64.1,-542,-846,12,1012.27,63.7,0
"2020-05-16 01:58:21+00",21.9,24.9,,64,-548,-856,6,1012.27,63.7,0
"2020-05-16 02:03:21+00",21.1,24.1,,63.8,-504,-831,11,1012.35,63.5,0
"2020-05-16 02:08:21+00",17.7,22.7,,63.7,-434,-704,-4,1012.35,63.4,0
"2020-05-16 02:13:21+00",19.1,23.1,,63.6,-452,-761,0,1012.38,63.3,0
"2020-05-16 02:18:21+00",18.2,20.2,,63.5,-419,-734,13,1012.36,63.2,0
"2020-05-16 02:23:21+00",18.6,21.6,,63.4,-454,-732,8,1012.42,63.1,0
"2020-05-16 02:28:21+00",21.0,26.0,,63.4,-518,-815,-7,1012.46,63,0
"2020-05-16 02:33:21+00",19.1,23.1,,63.4,-464,-753,-2,1012.54,63,0
"2020-05-16 02:38:21+00",19.4,22.4,,63.4,-486,-750,1,1012.43,63,0
"2020-05-16 02:43:21+00",19.6,22.6,,63.4,-432,-776,-3,1012.49,63,0
"2020-05-16 02:48:21+00",18.2,20.2,,63.3,-373,-728,-4,1012.28,62.9,0
"2020-05-16 02:53:21+00",17.3,21.3,,63.2,-415,-684,-5,1012.41,62.8,0
"2020-05-16 02:58:21+00",19.3,22.3,,63.4,-463,-760,-3,1012.39,62.9,0
"2020-05-16 03:03:21+00",22.2,25.2,,63.7,-546,-877,14,1012.43,63.2,0
"2020-05-16 03:08:21+00",20.5,25.5,,63.7,-519,-796,10,1012.33,63.3,0
"2020-05-16 03:13:21+00",20.9,24.9,,63.6,-559,-784,22,1012.35,63.2,0
"2020-05-16 03:18:21+00",22.7,24.7,,63.6,-604,-854,7,1012.35,63.2,0
"2020-05-16 03:23:21+00",22.3,25.3,,63.5,-584,-842,30,1012.35,63.2,0
"2020-05-16 03:28:21+00",21.5,26.5,,63.2,-623,-788,49,1012.39,63,0
"2020-05-16 03:33:21+00",24.1,29.1,,63.1,-673,-880,22,1012.35,63,0
"2020-05-16 03:38:21+00",25.4,29.4,,63.1,-765,-893,24,1012.43,62.8,0
"2020-05-16 03:43:21+00",25.7,29.7,,63,-752,-874,9,1012.48,62.8,0
"2020-05-16 03:48:21+00",25.7,28.7,,63,-731,-927,12,1012.4,62.7,0
"2020-05-16 03:53:21+00",23.9,26.9,,63,-699,-841,24,1012.46,62.7,0
"2020-05-16 03:58:21+00",25.1,30.1,,63.2,-709,-937,25,1012.41,62.8,0
"2020-05-16 04:03:21+00",23.5,28.5,,63.2,-673,-832,32,1012.34,62.9,0
"2020-05-16 04:08:21+00",23.5,27.5,,63.4,-656,-852,14,1012.36,63,0
"2020-05-16 04:13:21+00",24.2,27.2,,63.5,-687,-886,0,1012.28,63.1,0
"2020-05-16 04:18:21+00",22.8,25.8,,63.7,-640,-843,15,1012.39,63.2,0
"2020-05-16 04:23:21+00",22.8,26.8,,63.8,-654,-835,15,1012.38,63.4,0
"2020-05-16 04:28:21+00",21.7,25.7,,63.9,-604,-809,15,1012.33,63.5,0
"2020-05-16 04:33:21+00",21.6,24.6,,63.8,-603,-804,9,1012.33,63.5,0
"2020-05-16 04:38:21+00",23.0,26.0,,63.9,-606,-865,28,1012.3,63.5,0
"2020-05-16 04:43:21+00",20.3,23.3,,64,-567,-742,31,1012.35,63.6,0
"2020-05-16 04:48:21+00",18.5,22.5,,63.8,-514,-709,23,1012.32,63.5,0
"2020-05-16 04:53:21+00",18.2,21.2,,63.6,-478,-674,11,1012.29,63.4,0
"2020-05-16 04:58:21+00",17.9,20.9,,63.5,-468,-664,15,1012.25,63.2,0
"2020-05-16 05:03:21+00",18.5,20.5,,63.3,-466,-709,7,1012.19,63.1,0
"2020-05-16 05:08:21+00",16.2,17.2,,63.1,-398,-645,28,1012.23,62.9,0
"2020-05-16 05:13:21+00",16.3,19.3,,63,-395,-643,15,1012.22,62.8,0
"2020-05-16 05:18:21+00",18.0,21.0,,63,-463,-684,2,1012.27,62.7,0
"2020-05-16 05:23:21+00",16.3,21.3,,63,-444,-614,6,1012.26,62.7,0
"2020-05-16 05:28:21+00",17.6,19.6,,63,-477,-667,4,1012.25,62.6,0
"2020-05-16 05:33:21+00",18.2,20.2,,63.2,-488,-682,31,1012.17,62.7,0
"2020-05-16 05:38:21+00",18.6,20.6,,63.2,-509,-675,15,1012.2,62.7,0
"2020-05-16 05:43:21+00",18.5,20.5,,63,-526,-672,4,1012.18,62.6,0
"2020-05-16 05:48:21+00",17.9,20.9,,62.9,-444,-692,16,1012.09,62.5,0
"2020-05-16 05:53:21+00",17.4,20.4,,62.8,-462,-664,16,1011.99,62.4,0
"2020-05-16 05:58:21+00",14.2,16.2,,62.9,-509,-397,16,1012.16,62.5,0
"2020-05-16 06:03:21+00",16.4,18.4,,62.8,-473,-577,13,1012.08,62.5,0
"2020-05-16 06:08:21+00",15.8,18.8,,62.7,-473,-531,10,1012,62.4,0
"2020-05-16 06:13:21+00",16.5,18.5,,62.8,-467,-588,-6,1011.97,62.4,0
"2020-05-16 06:18:21+00",15.8,19.8,,63,-478,-553,12,1011.9,62.5,0
"2020-05-16 06:23:21+00",15.4,17.4,,63.3,-430,-567,10,1011.91,62.6,0
"2020-05-16 06:28:21+00",16.7,18.7,,63.6,-517,-534,7,1011.92,62.8,0
"2020-05-16 06:33:21+00",14.9,17.9,,63.6,-445,-517,1,1011.91,62.8,0
"2020-05-16 06:38:21+00",15.9,17.9,,63.9,-479,-532,-7,1011.91,63,0
"2020-05-16 06:43:21+00",15.4,18.4,,64.5,-472,-504,8,1011.84,63.3,0
"2020-05-16 06:48:21+00",16.7,19.7,,65,-521,-529,8,1011.85,63.6,0
"2020-05-16 06:53:21+00",16.4,19.4,,65.6,-518,-513,9,1011.78,64.1,0
"2020-05-16 06:58:21+00",17.2,20.2,,65.6,-533,-546,5,1011.88,64.4,0
"2020-05-16 07:03:21+00",17.6,20.6,,65.9,-547,-538,13,1011.86,64.6,0
"2020-05-16 07:08:21+00",17.9,20.9,,65.9,-551,-577,-3,1011.83,64.8,0
"2020-05-16 07:13:21+00",17.6,20.6,,66.2,-547,-563,3,1011.84,65,0
"2020-05-16 07:18:21+00",17.6,20.6,,66.3,-533,-564,11,1011.86,65.1,0
"2020-05-16 07:23:21+00",17.1,19.1,,66.2,-534,-559,7,1011.79,65.1,0
"2020-05-16 07:28:21+00",16.1,18.1,,66.3,-498,-532,7,1011.86,65.2,0
"2020-05-16 07:33:21+00",17.0,19.0,,66.2,-516,-541,-3,1011.87,65.2,0
"2020-05-16 07:38:21+00",15.8,17.8,,66.3,-489,-490,6,1011.72,65.2,0
"2020-05-16 07:43:21+00",16.3,18.3,,66.3,-513,-502,2,1011.86,65.2,0
"2020-05-16 07:48:21+00",16.4,19.4,,66.5,-520,-500,9,1011.89,65.2,0
"2020-05-16 07:53:21+00",14.8,16.8,,66.5,-470,-449,16,1011.82,65.2,0
"2020-05-16 07:58:21+00",14.2,16.2,,66.8,-478,-411,16,1011.83,65.2,0
"2020-05-16 08:03:21+00",13.8,15.8,,67.2,-482,-390,12,1011.88,65.4,0
"2020-05-16 08:08:21+00",13.3,15.3,,67.2,-465,-381,0,1011.8,65.5,0
"2020-05-16 08:13:21+00",12.3,15.3,,67.4,-498,-308,12,1011.89,65.6,0
"2020-05-16 08:18:21+00",16.4,20.4,,68.6,-688,-313,11,1011.9,65.8,0
"2020-05-16 08:23:21+00",13.3,16.3,,69,-560,-274,16,1011.96,66.2,0
"2020-05-16 08:28:21+00",14.3,16.3,,69,-593,-276,15,1012.01,66.5,0
"2020-05-16 08:33:21+00",14.3,16.3,,69,-595,-271,18,1012.01,66.6,0
"2020-05-16 08:38:21+00",14.3,16.3,,69,-604,-286,17,1012.02,66.8,0
"2020-05-16 08:43:21+00",13.6,15.6,,68.9,-557,-229,3,1012.12,66.9,0
"2020-05-16 08:48:21+00",12.4,14.4,,68.6,-504,-179,16,1012.24,66.8,0
"2020-05-16 08:53:21+00",13.0,15.0,,68.4,-520,-201,15,1012.13,66.7,0
"2020-05-16 08:58:21+00",11.6,14.6,,68.4,-476,-159,24,1012.1,66.6,0
"2020-05-16 09:03:21+00",12.0,13.0,,68.4,-488,-182,16,1012.09,66.5,0
"2020-05-16 09:08:21+00",12.2,14.2,,68.4,-492,-191,17,1012.08,66.4,0
"2020-05-16 09:13:21+00",13.6,15.6,,68.7,-555,-160,11,1012.19,66.4,0
"2020-05-16 09:18:21+00",12.0,14.0,,68.7,-499,-149,11,1012.17,66.5,0
"2020-05-16 09:23:21+00",12.5,13.5,,68.6,-520,-137,5,1012.35,66.6,0
"2020-05-16 09:28:21+00",10.1,12.1,,68.6,-427,-110,16,1012.41,66.5,0
"2020-05-16 09:33:21+00",10.4,12.4,,68.8,-452,-44,14,1012.52,66.5,0
"2020-05-16 09:38:21+00",9.0,10.0,,68.6,-399,-7,5,1012.5,66.4,0
"2020-05-16 09:43:21+00",9.5,10.5,,68.5,-417,-20,0,1012.62,66.2,0
"2020-05-16 09:48:21+00",9.8,11.8,,68.6,-433,-55,-4,1012.66,66.1,0
"2020-05-16 09:53:21+00",9.9,10.9,,68.7,-441,-29,5,1012.77,66.1,0
"2020-05-16 09:58:21+00",9.7,10.7,,68.7,-431,-14,3,1012.85,66.1,0
"2020-05-16 10:03:21+00",9.1,10.1,,68.5,-400,-29,3,1012.95,66.1,0
"2020-05-16 10:08:21+00",9.0,10.0,,68.5,-378,-86,3,1013.05,66,0
"2020-05-16 10:13:21+00",8.5,10.5,,68.5,-381,-28,2,1013.24,66,0
"2020-05-16 10:18:21+00",8.5,8.5,,68.2,-378,-1,5,1013.19,66,0
"2020-05-16 10:23:21+00",9.0,10.0,,68.1,-403,18,-1,1013.31,65.9,0
"2020-05-16 10:28:21+00",9.5,11.5,,68.1,-416,34,5,1013.33,65.8,0
"2020-05-16 10:33:21+00",8.3,9.3,,67.9,-370,-7,-1,1013.46,65.8,0
"2020-05-16 10:38:21+00",9.3,10.3,,68.2,-417,11,9,1013.55,65.8,0
"2020-05-16 10:43:21+00",8.8,9.8,,68.1,-391,24,8,1013.68,65.9,0
"2020-05-16 10:48:21+00",9.4,9.4,,68,-420,23,4,1013.71,65.9,0
"2020-05-16 10:53:21+00",9.3,10.3,,68,-419,21,5,1013.79,65.9,0
"2020-05-16 10:58:21+00",9.0,10.0,,68.1,-398,-5,4,1013.82,65.8,0
"2020-05-16 11:03:21+00",8.8,9.8,,68.2,-394,-2,5,1013.91,66,0
"2020-05-16 11:08:21+00",9.4,9.4,,68.3,-419,11,7,1014.03,66.2,0
"2020-05-16 11:13:21+00",9.1,9.1,,68.3,-408,38,9,1014.22,66.4,0
"2020-05-16 11:18:21+00",9.0,10.0,,68.4,-404,13,5,1014.21,66.6,0
"2020-05-16 11:23:21+00",8.8,9.8,,68.5,-395,62,6,1014.29,66.8,0
"2020-05-16 11:28:21+00",9.1,10.1,,68.7,-401,59,1,1014.45,67,0
"2020-05-16 11:33:21+00",8.0,9.0,,68.9,-359,80,12,1014.33,67.4,0
"2020-05-16 11:38:21+00",7.0,8.0,,68.8,-264,144,25,1014.33,67.8,0
"2020-05-16 11:43:21+00",7.0,8.0,,68.1,-253,171,-2,1014.39,68.1,0
"2020-05-16 11:48:21+00",7.8,8.8,,68,-288,197,11,1014.42,68,0
"2020-05-16 11:53:21+00",7.4,8.4,,67.9,-258,195,16,1014.37,67.9,0
"2020-05-16 11:58:21+00",8.9,9.9,,68.4,-246,320,20,1014.45,68.1,0
"2020-05-16 12:03:21+00",7.7,9.7,,68.9,-187,286,12,1014.55,68.6,0
"2020-05-16 12:08:21+00",8.9,10.9,,69.5,-204,342,22,1014.55,69.4,0
"2020-05-16 12:13:21+00",10.8,12.8,,70,-93,464,-11,1014.7,70.6,0
"2020-05-16 12:18:21+00",11.9,13.9,,70.3,-34,529,-16,1014.77,71.9,0
"2020-05-16 12:23:21+00",12.2,13.2,,70.4,5,529,-12,1014.82,73,0
"2020-05-16 12:28:21+00",11.7,13.7,,70.5,29,532,19,1014.9,73.4,0
"2020-05-16 12:33:21+00",12.9,14.9,,70.3,85,570,-13,1015.13,73.1,0
"2020-05-16 12:38:21+00",12.9,15.9,,70.6,124,540,8,1015.11,72.9,0
"2020-05-16 12:43:21+00",14.9,17.9,,70.7,61,647,11,1015.25,73,0
"2020-05-16 12:48:21+00",12.4,16.4,,70.4,60,542,22,1015.25,73.1,0
"2020-05-16 12:53:21+00",15.8,16.8,,70.6,-12,693,0,1015.35,72.6,0
"2020-05-16 12:58:21+00",11.9,13.9,,70.4,17,532,-3,1015.37,72.2,0
"2020-05-16 13:03:21+00",11.7,13.7,,70.4,6,532,12,1015.46,72,0
"2020-05-16 13:08:21+00",10.0,12.0,,70.3,96,408,22,1015.52,71.7,0
"2020-05-16 13:13:21+00",11.9,13.9,,70,37,515,-9,1015.62,71.5,0
"2020-05-16 13:18:21+00",9.4,12.4,,69.8,65,399,-11,1015.68,71.2,0
"2020-05-16 13:23:21+00",11.0,13.0,,69.7,-56,483,15,1015.9,71,0
"2020-05-16 13:28:21+00",10.7,12.7,,69.7,-30,466,18,1016.01,70.7,0
"2020-05-16 13:33:21+00",12.8,14.8,,69.6,32,557,-6,1016.02,70.6,0
"2020-05-16 13:38:21+00",11.8,13.8,,69.5,63,522,-10,1016.04,70.4,0
"2020-05-16 13:43:21+00",10.0,12.0,,69.5,66,425,-6,1016.12,70.4,0
"2020-05-16 13:48:21+00",10.0,12.0,,69.5,107,409,-7,1016.18,70.6,0
"2020-05-16 13:53:21+00",9.2,11.2,,69.7,56,396,18,1016.24,70.8,0
"2020-05-16 13:58:21+00",7.8,9.8,,69.7,61,331,-8,1016.31,70.7,0
"2020-05-16 14:03:21+00",8.1,11.1,,69.7,69,326,8,1016.27,70.6,0
"2020-05-16 14:08:21+00",5.5,6.5,,69.9,80,213,7,1016.27,70.8,0
"2020-05-16 14:13:21+00",7.2,10.2,,70,86,287,8,1016.31,71.2,0
"2020-05-16 14:18:21+00",6.0,7.0,,69.8,232,109,11,1016.28,71.8,0
"2020-05-16 14:23:21+00",5.0,6.0,,68.9,201,69,27,1016.38,71.9,0
"2020-05-16 14:28:21+00",7.1,9.1,,68.4,304,94,30,1016.28,72.2,0
"2020-05-16 14:33:21+00",6.6,7.6,,68.3,282,72,12,1016.36,72.7,0
"2020-05-16 14:38:21+00",9.5,10.5,,66.6,425,-7,5,1016.33,71.6,11.9
"2020-05-16 14:43:21+00",10.0,12.0,,66.8,444,-12,14,1016.39,71.9,11.6
"2020-05-16 14:48:21+00",12.8,14.8,,66.1,570,116,16,1016.45,71.5,0
"2020-05-16 14:53:21+00",12.1,14.1,,65,534,44,38,1016.52,70.5,0
"2020-05-16 14:58:21+00",13.4,14.4,,64.7,602,94,20,1016.69,69.8,0
"2020-05-16 15:03:21+00",12.8,14.8,,64.3,567,110,41,1016.77,68.8,0
"2020-05-16 15:08:21+00",13.1,14.1,,63.9,593,114,9,1016.83,68.3,0
"2020-05-16 15:13:21+00",12.9,14.9,,63.2,579,97,16,1016.85,67.8,0
"2020-05-16 15:18:21+00",15.2,17.2,,63.7,660,172,24,1016.97,67.9,0
"2020-05-16 15:23:21+00",14.2,15.2,,64.6,614,248,61,1016.91,68.2,0
"2020-05-16 15:28:21+00",16.1,18.1,,65,705,233,23,1016.91,68.7,0
"2020-05-16 15:33:21+00",13.7,15.7,,65.4,589,200,49,1016.94,69,0
"2020-05-16 15:38:21+00",14.2,17.2,,65.8,648,89,55,1016.85,69.9,1.2
"2020-05-16 15:43:21+00",16.3,20.3,,65,730,143,51,1016.86,70,4.5
"2020-05-16 15:48:21+00",16.9,18.9,,64.1,760,137,36,1016.87,69.5,2.7
"2020-05-16 15:53:21+00",15.4,18.4,,65.1,689,179,58,1017.02,69.8,3.7
"2020-05-16 15:58:21+00",13.6,16.6,,66.5,582,174,74,1017.13,70.7,4
"2020-05-16 16:03:21+00",17.2,19.2,,67.3,725,339,73,1017.08,71.9,3.9
"2020-05-16 16:08:21+00",19.3,22.3,,67.5,868,227,63,1017.05,72.4,4.6
"2020-05-16 16:13:21+00",16.1,19.1,,67,730,27,58,1017.03,72.2,4.2
"2020-05-16 16:18:21+00",17.6,18.6,,65.3,792,88,32,1017.14,70.3,3.2
"2020-05-16 16:23:21+00",16.7,18.7,,65.3,711,257,21,1017.24,70.4,1.5
"2020-05-16 16:28:21+00",16.3,20.3,,65.3,652,338,29,1017.34,70.5,3.9
"2020-05-16 16:33:21+00",15.5,17.5,,65.4,694,165,35,1017.41,71,4.1
"2020-05-16 16:38:21+00",16.6,18.6,,65.2,743,145,62,1017.46,71.2,3
"2020-05-16 16:43:21+00",16.2,18.2,,65.7,712,238,34,1017.58,71.3,0
"2020-05-16 16:48:21+00",15.2,17.2,,64.9,686,99,46,1017.61,70.7,2.9
"2020-05-16 16:53:21+00",16.5,19.5,,65.2,724,226,36,1017.66,70.6,1
"2020-05-16 16:58:21+00",17.0,19.0,,65.2,716,319,97,1017.66,70.9,3.8
"2020-05-16 17:03:21+00",17.9,20.9,,65.5,801,201,73,1017.65,71.1,2.8
"2020-05-16 17:08:21+00",18.6,20.6,,65.5,817,193,37,1017.73,70.9,0.4
"2020-05-16 17:13:21+00",16.5,19.5,,65.6,748,180,49,1017.81,70.7,2.3
"2020-05-16 17:18:21+00",13.7,16.7,,65.5,633,-4,70,1017.76,70.6,2.6
"2020-05-16 17:23:21+00",16.5,19.5,,64.9,738,148,23,1017.86,70.2,2.2
"2020-05-16 17:28:21+00",16.8,17.8,,65,723,230,63,1017.85,70.5,0.2
"2020-05-16 17:33:21+00",17.1,19.1,,64.7,769,113,24,1017.76,70.5,0.1
"2020-05-16 17:38:21+00",17.0,19.0,,65.2,748,144,31,1017.86,70.5,0.9
"2020-05-16 17:43:21+00",16.4,19.4,,65.1,735,213,40,1018,70.4,0
"2020-05-16 17:48:21+00",17.1,19.1,,65,760,154,26,1017.95,70.5,0
"2020-05-16 17:53:21+00",17.2,19.2,,64.9,780,175,54,1017.92,70.6,0
"2020-05-16 17:58:21+00",15.0,16.0,,64.9,661,159,53,1017.97,70.4,0
"2020-05-16 18:03:21+00",15.8,18.8,,64.6,713,201,28,1017.98,70.3,0
"2020-05-16 18:08:21+00",15.7,16.7,,64.8,698,154,49,1018.02,70,0
"2020-05-16 18:13:21+00",15.3,18.3,,65.2,676,95,68,1018,70.3,0
"2020-05-16 18:18:21+00",18.7,19.7,,65.1,833,194,30,1017.95,70.2,0
"2020-05-16 18:23:21+00",16.8,18.8,,65.3,722,269,55,1017.95,70.3,0
"2020-05-16 18:28:21+00",16.2,19.2,,65.5,700,215,56,1017.94,70.6,0
"2020-05-16 18:33:21+00",17.0,18.0,,65.2,740,253,53,1018.02,70.1,0
"2020-05-16 18:38:21+00",17.0,19.0,,65.1,740,206,47,1018.03,69.9,0
"2020-05-16 18:43:21+00",17.3,19.3,,65.3,775,160,55,1018.14,69.9,0
"2020-05-16 18:48:21+00",15.8,17.8,,65,703,154,60,1018.19,69.9,0
"2020-05-16 18:53:21+00",17.6,20.6,,64.8,773,169,48,1018.16,69.8,0
"2020-05-16 18:58:21+00",18.2,20.2,,64.5,821,156,42,1018.2,69.5,0
"2020-05-16 19:03:21+00",16.6,18.6,,64.7,736,127,55,1018.21,69.2,0
"2020-05-16 19:08:21+00",15.6,18.6,,64.9,682,171,96,1018.34,69.2,0
"2020-05-16 19:13:21+00",14.5,16.5,,65.1,664,65,66,1018.22,69.2,0
"2020-05-16 19:18:21+00",14.5,17.5,,64.8,664,57,25,1018.34,68.7,0
"2020-05-16 19:23:21+00",13.8,15.8,,63.9,633,-7,73,1018.38,67.9,0
"2020-05-16 19:28:21+00",13.4,15.4,,63.2,624,2,53,1018.38,67,0
"2020-05-16 19:33:21+00",16.0,18.0,,62.7,727,81,38,1018.5,66.6,0
"2020-05-16 19:38:21+00",16.8,18.8,,62.3,750,101,27,1018.38,66.6,0
"2020-05-16 19:43:21+00",16.5,19.5,,62.5,755,24,41,1018.38,66.1,0
"2020-05-16 19:48:21+00",16.6,18.6,,61.6,766,3,45,1018.41,65.3,0
"2020-05-16 19:53:21+00",15.3,17.3,,61.7,694,75,60,1018.34,65.3,0
"2020-05-16 19:58:21+00",14.7,17.7,,61.5,669,-34,19,1018.34,64.9,0
"2020-05-16 20:03:21+00",13.8,15.8,,61.7,630,-54,-9,1018.28,64.8,0
"2020-05-16 20:08:21+00",14.5,16.5,,61.6,669,-41,16,1018.26,64.5,0
"2020-05-16 20:13:21+00",15.4,17.4,,61.7,701,-29,19,1018.21,64.3,0
"2020-05-16 20:18:21+00",14.5,16.5,,61.9,638,-115,10,1018.32,64.4,0
"2020-05-16 20:23:21+00",13.5,15.5,,62.9,611,-82,34,1018.37,65.1,0
"2020-05-16 20:28:21+00",14.5,16.5,,63.3,667,-10,37,1018.41,65.4,0
"2020-05-16 20:33:21+00",16.4,17.4,,63.2,742,23,16,1018.35,65.5,0
"2020-05-16 20:38:21+00",14.3,16.3,,63.3,649,13,43,1018.36,65.3,0
"2020-05-16 20:43:21+00",15.2,17.2,,63.7,695,-69,8,1018.32,65.7,0
"2020-05-16 20:48:21+00",14.6,16.6,,63.7,664,-61,1,1018.3,65.7,0
"2020-05-16 20:53:21+00",12.7,13.7,,63.6,561,-100,39,1018.47,65.7,0
"2020-05-16 20:58:21+00",12.5,14.5,,63.9,544,-113,19,1018.42,66.2,0
"2020-05-16 21:03:21+00",11.6,13.6,,64.1,503,-115,5,1018.47,66.2,0
"2020-05-16 21:08:21+00",11.0,13.0,,63.4,417,-252,12,1018.54,65.8,0
"2020-05-16 21:13:21+00",10.5,12.5,,62.6,424,-198,5,1018.6,65.3,0
"2020-05-16 21:18:21+00",10.4,12.4,,61.7,456,-112,-4,1018.74,64.4,0
"2020-05-16 21:23:21+00",9.6,12.6,,61.5,411,-115,23,1018.75,63.8,0
"2020-05-16 21:28:21+00",8.8,9.8,,61.4,360,-159,11,1018.79,63.5,0
"2020-05-16 21:33:21+00",8.0,9.0,,61.4,323,-133,18,1018.65,63.4,0
"2020-05-16 21:38:21+00",8.8,10.8,,61.5,381,-87,19,1018.82,63.3,0
"2020-05-16 21:43:21+00",10.2,12.2,,61.9,442,-109,3,1018.84,63.3,0
"2020-05-16 21:48:21+00",8.5,10.5,,62.1,361,-108,12,1018.82,63.3,0
"2020-05-16 21:53:21+00",9.8,10.8,,61.8,388,-203,-4,1018.86,63.5,0
"2020-05-16 21:58:21+00",8.0,10.0,,61.8,290,-202,-1,1018.78,63.5,0
"2020-05-16 22:03:21+00",8.7,10.7,,61.9,220,-288,-8,1018.77,63.3,0
"2020-05-16 22:08:21+00",8.9,10.9,,61,100,-366,-18,1018.88,62.3,0
"2020-05-16 22:13:21+00",8.7,10.7,,61,244,-291,-5,1019,62.1,0
"2020-05-16 22:18:21+00",8.6,10.6,,60.9,2,-352,-32,1019.04,61.9,0
"2020-05-16 22:23:21+00",7.4,8.4,,60.1,64,-306,-17,1019.03,61,0
"2020-05-16 22:28:21+00",7.8,9.8,,60,86,-338,-20,1019.15,60.7,0
"2020-05-16 22:33:21+00",6.4,8.4,,59.9,-4,-268,-3,1019.28,60.5,0
"2020-05-16 22:38:21+00",7.7,9.7,,59.9,63,-319,-8,1019.27,60.3,0
"2020-05-16 22:43:21+00",7.8,9.8,,60,31,-324,-14,1019.39,60.4,0
"2020-05-16 22:48:21+00",7.5,9.5,,59.8,17,-312,-23,1019.52,60.1,0
"2020-05-16 22:53:21+00",6.8,8.8,,60,62,-275,-11,1019.61,60.2,0
"2020-05-16 22:58:21+00",6.8,8.8,,59.9,40,-281,-12,1019.6,60.1,0
"2020-05-16 23:03:21+00",8.1,9.1,,59.7,55,-330,-13,1019.71,59.9,0
"2020-05-16 23:08:21+00",7.9,9.9,,59.5,33,-326,-9,1019.9,59.8,0
"2020-05-16 23:13:21+00",5.8,7.8,,59.4,55,-235,4,1019.88,59.5,0
"2020-05-16 23:18:21+00",6.2,8.2,,59.5,81,-232,-3,1019.91,59.7,0
"2020-05-16 23:23:21+00",6.5,7.5,,59.7,74,-263,-11,1020.07,59.8,0
"2020-05-16 23:28:21+00",5.3,7.3,,59.6,55,-219,0,1020.11,59.7,0
"2020-05-16 23:33:21+00",7.1,8.1,,59.3,14,-304,-14,1020.18,59.5,0
"2020-05-16 23:38:21+00",6.5,8.5,,59.2,30,-255,-9,1020.2,59.3,0
"2020-05-16 23:43:21+00",5.9,7.9,,59.1,34,-228,-13,1020.08,59.2,0
"2020-05-16 23:48:21+00",6.7,7.7,,59.1,68,-266,-8,1020.06,59.1,0
"2020-05-16 23:53:21+00",5.9,7.9,,59.2,36,-249,-6,1020.05,59.1,0
"2020-05-16 23:58:21+00",6.2,8.2,,59.4,63,-252,-2,1020.08,59.2,0
